Reflectivity
-20 -20 -20 -20 -20 -20 -15 -20 11 15 -20 11 32 10 6 29 2 1 -18 -19 -20 -20
-20 -20 -20 -20 -20 -20 -20 -20 -18 14 16 18 -20 22 32 21 21 28 22 8 1 -20
-20 -20 -20 -20 -20 -20 -20 -6 -1 -5 5 18 17 17 11 30 13 27 26 26 20 13
-20 -20 -20 -20 -20 -20 -20 -20 -20 -20 -0 2 11 15 26 27 25 28 31 29 24 25
-20 -20 -20 -20 -20 -20 -20 -20 -20 -20 -20 17 -5 -9 8 39 34 25 37 14 38 21
-20 -20 -20 -20 -20 -20 -20 -20 -20 -20 11 2 3 3 9 12 11 23 22 4 41 28
-20 -20 -20 -20 -20 -20 -20 -20 -20 4 -6 8 1 -3 -4 -9 27 12 12 4 16 0
-20 -20 -20 -20 -20 -20 -20 -20 -20 -20 -1 -12 9 12 9 -1 3 -3 4 -20 -20 -9
-20 -20 -20 -20 -20 -20 -20 -20 -20 -20 -20 -20 -20 -2 12 5 -20 -3 27 22 20 -20
-20 -20 -20 -20 -20 -20 -20 -20 -20 -20 -20 -9 -20 -20 -20 -20 -20 -18 5 30 10 20
-20 -20 -20 -20 -20 -20 -20 -20 -20 -20 -20 -20 -20 -20 -20 -20 -20 -20 -16 0 -3 23
-20 -20 -20 -20 -20 -20 -20 -20 -20 -20 -20 -20 -20 -20 -20 -20 -20 -20 -20 -11 5 8
-20 -20 -20 -20 -20 -20 -20 -20 -20 -20 -20 -20 -19 9 9 2 -20 -9 -20 -20 -20 -14
-20 -20 -20 -20 -20 -20 -20 -20 -20 -20 -16 1 -10 -8 -15 8 -3 -13 -20 -20 -20 -20
Wind_Speed
11 8 7 9 10 9 8 9 14 15 15 17 18 18 19 16 14 15 16 20 16 14
9 10 10 11 9 9 11 10 13 14 16 18 17 17 19 13 19 17 17 18 18 18
8 10 9 9 11 12 11 13 12 13 13 15 15 16 16 15 17 21 13 15 19 18
8 7 7 9 9 10 13 13 14 13 13 14 15 12 13 14 15 17 16 18 19 22
7 10 11 11 10 10 11 12 12 14 13 15 16 15 12 10 12 14 17 15 19 21
8 9 10 12 12 13 11 11 13 13 14 15 14 15 15 14 16 11 14 15 15 15
10 11 11 11 12 14 14 14 12 12 14 13 14 13 10 13 15 14 12 16 15 14
11 12 13 14 14 14 13 14 17 14 12 12 11 11 13 14 14 16 15 17 15 13
12 13 13 14 15 16 15 15 15 16 16 15 9 11 9 12 14 17 14 17 16 16
13 14 15 16 16 17 17 16 17 17 16 15 15 13 14 18 14 15 14 13 16 12
13 14 14 15 15 16 16 18 18 17 17 17 15 17 18 17 15 14 15 14 13 15
13 14 15 16 16 16 15 16 17 18 19 19 18 23 22 18 16 14 14 13 14 14
13 14 15 15 17 15 16 15 14 16 17 20 18 20 21 18 14 17 13 13 14 14
13 14 14 15 15 16 15 14 15 16 15 15 16 17 21 22 14 12 13 12 11 9
Wind_Direction
14 6 0 354 347 340 339 343 334 334 340 336 340 340 338 268 237 233 238 237 237 237
4 8 355 347 349 339 330 335 346 326 334 338 340 347 328 333 316 251 241 241 238 240
12 357 351 344 344 335 331 327 323 341 333 316 344 340 341 344 348 346 288 250 245 242
356 350 350 339 333 329 329 333 327 334 326 332 329 329 331 339 343 350 334 339 332 261
0 351 345 338 332 333 325 328 328 325 333 322 321 331 328 322 320 354 337 330 328 323
355 348 338 335 334 328 322 322 322 332 326 318 318 333 317 338 340 350 331 321 312 325
353 345 340 331 329 325 324 323 320 327 320 313 315 316 331 335 328 338 320 307 302 319
349 342 338 334 329 325 327 325 317 315 310 316 317 318 322 336 321 322 309 305 304 317
344 339 334 330 327 327 325 321 322 320 320 313 305 316 320 298 310 305 320 301 317 313
341 337 334 332 332 329 326 325 327 322 321 318 319 302 319 313 310 306 300 306 297 308
337 331 333 334 331 328 331 329 328 325 322 321 317 314 314 304 303 311 300 301 307 291
334 337 340 333 340 339 331 328 323 322 321 320 317 316 315 312 310 308 306 312 311 320
344 342 335 350 341 334 328 321 319 316 316 315 314 315 311 313 314 309 308 316 310 306
346 340 356 343 341 331 324 321 318 314 314 314 315 314 313 311 308 307 308 305 303 306